| time (UTC) | temp C | wind direction | speed KPH | gust KPH | rain 1hr cm | rain 24hr cm | rain mn cm | humidity % | barometer mb |
| 20260508002832 | 22 | 225 | 6.4 | 24.1 | 0.00 | 0.00 | 0.00 | 64 | 1015.5 |
| 20260508002350 | 22 | 271 | 11.3 | 19.3 | 0.00 | 0.00 | 0.00 | 64 | 1015.6 |
| 20260508001829 | 22 | 265 | 4.8 | 17.7 | 0.00 | 0.00 | 0.00 | 64 | 1015.6 |
| 20260508001325 | 22 | 199 | 12.9 | 19.3 | 0.00 | 0.00 | 0.00 | 63 | 1015.5 |
| 20260508000841 | 22 | 228 | 14.5 | 24.1 | 0.00 | 0.00 | 0.00 | 63 | 1015.5 |
| 20260508000338 | 22 | 269 | 14.5 | 24.1 | 0.00 | 0.00 | 0.00 | 62 | 1015.4 |
| 20260507235835 | 22 | 244 | 12.9 | 19.3 | 0.00 | 0.00 | 0.00 | 62 | 1015.6 |
| 20260507235332 | 23 | 211 | 11.3 | 19.3 | 0.00 | 0.00 | 0.00 | 62 | 1015.7 |
| 20260507234830 | 22 | 346 | 6.4 | 19.3 | 0.00 | 0.00 | 0.00 | 63 | 1015.8 |
| 20260507234328 | 22 | 273 | 11.3 | 20.9 | 0.00 | 0.00 | 0.00 | 63 | 1015.7 |
| 20260507233843 | 22 | 306 | 11.3 | 20.9 | 0.00 | 0.00 | 0.00 | 62 | 1015.7 |
| 20260507233401 | 22 | 221 | 16.1 | 24.1 | 0.00 | 0.00 | 0.00 | 62 | 1015.7 |
| 20260507232837 | 22 | 286 | 8.0 | 24.1 | 0.00 | 0.00 | 0.00 | 62 | 1015.6 |
| 20260507232357 | 22 | 235 | 12.9 | 24.1 | 0.00 | 0.00 | 0.00 | 62 | 1015.8 |
| 20260507231834 | 22 | 294 | 16.1 | 22.5 | 0.00 | 0.00 | 0.00 | 61 | 1015.9 |
| 20260507231351 | 22 | 225 | 11.3 | 22.5 | 0.00 | 0.00 | 0.00 | 62 | 1015.8 |
| 20260507230829 | 22 | 196 | 11.3 | 19.3 | 0.00 | 0.00 | 0.00 | 61 | 1015.8 |
| 20260507230327 | 22 | 292 | 12.9 | 22.5 | 0.00 | 0.00 | 0.00 | 61 | 1015.7 |
| 20260507225825 | 22 | 203 | 12.9 | 20.9 | 0.00 | 0.00 | 0.00 | 61 | 1015.7 |
| 20260507225343 | 22 | 281 | 16.1 | 20.9 | 0.00 | 0.00 | 0.00 | 60 | 1015.9 |
| 20260507224836 | 22 | 259 | 16.1 | 22.5 | 0.00 | 0.00 | 0.00 | 60 | 1015.9 |
| 20260507224334 | 22 | 293 | 16.1 | 22.5 | 0.00 | 0.00 | 0.00 | 59 | 1015.9 |
| 20260507223835 | 23 | 289 | 16.1 | 25.7 | 0.00 | 0.00 | 0.00 | 59 | 1016.0 |
| 20260507223335 | 23 | 230 | 17.7 | 25.7 | 0.00 | 0.00 | 0.00 | 59 | 1015.9 |
| 20260507222834 | 23 | 304 | 9.7 | 25.7 | 0.00 | 0.00 | 0.00 | 60 | 1016.0 |
| 20260507222333 | 23 | 309 | 16.1 | 25.7 | 0.00 | 0.00 | 0.00 | 58 | 1016.0 |
| 20260507221827 | 23 | 240 | 16.1 | 24.1 | 0.00 | 0.00 | 0.00 | 58 | 1015.9 |
| 20260507221326 | 23 | 229 | 12.9 | 24.1 | 0.00 | 0.00 | 0.00 | 59 | 1015.9 |
| 20260507220826 | 23 | 267 | 11.3 | 24.1 | 0.00 | 0.00 | 0.00 | 59 | 1016.0 |
| 20260507220345 | 23 | 288 | 12.9 | 22.5 | 0.00 | 0.00 | 0.00 | 58 | 1016.1 |
| 20260507215838 | 23 | 273 | 14.5 | 22.5 | 0.00 | 0.00 | 0.00 | 57 | 1016.2 |
| 20260507215337 | 23 | 200 | 9.7 | 24.1 | 0.00 | 0.00 | 0.00 | 58 | 1016.3 |
| 20260507214832 | 23 | 304 | 14.5 | 24.1 | 0.00 | 0.00 | 0.00 | 58 | 1016.4 |
| 20260507214329 | 23 | 186 | 12.9 | 24.1 | 0.00 | 0.00 | 0.00 | 58 | 1016.3 |
| 20260507213827 | 23 | 313 | 11.3 | 24.1 | 0.00 | 0.00 | 0.00 | 59 | 1016.4 |
| 20260507213342 | 23 | 240 | 19.3 | 24.1 | 0.00 | 0.00 | 0.00 | 58 | 1016.4 |
| 20260507212842 | 23 | 281 | 14.5 | 24.1 | 0.00 | 0.00 | 0.00 | 59 | 1016.5 |
| 20260507212340 | 23 | 292 | 12.9 | 24.1 | 0.00 | 0.00 | 0.00 | 59 | 1016.6 |
| 20260507211832 | 23 | 294 | 9.7 | 24.1 | 0.00 | 0.00 | 0.00 | 59 | 1016.6 |
| 20260507211353 | 22 | 293 | 12.9 | 25.7 | 0.00 | 0.00 | 0.00 | 60 | 1016.7 |
| 20260507210829 | 23 | 319 | 19.3 | 25.7 | 0.00 | 0.00 | 0.00 | 59 | 1016.8 |
| 20260507210328 | 22 | 248 | 16.1 | 25.7 | 0.00 | 0.00 | 0.00 | 59 | 1016.7 |
| 20260507205825 | 22 | 258 | 19.3 | 25.7 | 0.00 | 0.00 | 0.00 | 60 | 1016.7 |
| 20260507205326 | 22 | 296 | 17.7 | 24.1 | 0.00 | 0.00 | 0.00 | 59 | 1016.8 |
| 20260507204840 | 22 | 223 | 11.3 | 24.1 | 0.00 | 0.00 | 0.00 | 61 | 1016.8 |
| 20260507204337 | 22 | 286 | 19.3 | 24.1 | 0.00 | 0.00 | 0.00 | 60 | 1017.0 |
| 20260507203837 | 22 | 277 | 17.7 | 22.5 | 0.00 | 0.00 | 0.00 | 60 | 1017.0 |
| 20260507203335 | 22 | 295 | 17.7 | 27.4 | 0.00 | 0.00 | 0.00 | 61 | 1017.1 |
| 20260507202835 | 22 | 255 | 19.3 | 27.4 | 0.00 | 0.00 | 0.00 | 61 | 1016.8 |
| 20260507202332 | 22 | 222 | 11.3 | 22.5 | 0.00 | 0.00 | 0.00 | 62 | 1016.8 |
| 20260507201826 | 22 | 298 | 17.7 | 27.4 | 0.00 | 0.00 | 0.00 | 62 | 1016.8 |
| 20260507201404 | 22 | 273 | 16.1 | 27.4 | 0.00 | 0.00 | 0.00 | 62 | 1016.9 |
| 20260507200823 | 23 | 314 | 14.5 | 25.7 | 0.00 | 0.00 | 0.00 | 61 | 1017.0 |
| 20260507200344 | 23 | 225 | 17.7 | 19.3 | 0.00 | 0.00 | 0.00 | 62 | 1017.0 |
| 20260507195826 | 23 | 263 | 12.9 | 20.9 | 0.00 | 0.00 | 0.00 | 63 | 1017.0 |
| 20260507195343 | 22 | 274 | 8.0 | 20.9 | 0.00 | 0.00 | 0.00 | 64 | 1017.0 |
| 20260507194841 | 22 | 279 | 16.1 | 20.9 | 0.00 | 0.00 | 0.00 | 64 | 1017.1 |
| 20260507194338 | 22 | 311 | 14.5 | 20.9 | 0.00 | 0.00 | 0.00 | 63 | 1017.1 |
| 20260507193838 | 23 | 279 | 14.5 | 19.3 | 0.00 | 0.00 | 0.00 | 62 | 1017.2 |
| 20260507193337 | 22 | 221 | 11.3 | 22.5 | 0.00 | 0.00 | 0.00 | 64 | 1017.2 |
| 20260507192831 | 22 | 298 | 9.7 | 25.7 | 0.00 | 0.00 | 0.00 | 64 | 1017.3 |
| 20260507192331 | 22 | 326 | 14.5 | 25.7 | 0.00 | 0.00 | 0.00 | 63 | 1017.5 |
| 20260507191830 | 22 | 298 | 16.1 | 22.5 | 0.00 | 0.00 | 0.00 | 62 | 1017.5 |
| 20260507191326 | 23 | 276 | 14.5 | 22.5 | 0.00 | 0.00 | 0.00 | 61 | 1017.4 |
| 20260507190827 | 23 | 202 | 4.8 | 19.3 | 0.00 | 0.00 | 0.00 | 59 | 1017.5 |
| 20260507190347 | 23 | 303 | 6.4 | 12.9 | 0.00 | 0.00 | 0.00 | 58 | 1017.6 |
| 20260507185859 | 23 | 297 | 3.2 | 16.1 | 0.00 | 0.00 | 0.00 | 59 | 1017.7 |
| 20260507185357 | 23 | 223 | 9.7 | 17.7 | 0.00 | 0.00 | 0.00 | 59 | 1017.8 |
| 20260507184835 | 23 | 252 | 6.4 | 17.7 | 0.00 | 0.00 | 0.00 | 59 | 1017.9 |
| 20260507184336 | 22 | 232 | 4.8 | 12.9 | 0.00 | 0.00 | 0.00 | 60 | 1017.9 |
| 20260507183857 | 22 | 173 | 4.8 | 12.9 | 0.00 | 0.00 | 0.00 | 61 | 1017.9 |
| 20260507183331 | 22 | 248 | 4.8 | 19.3 | 0.00 | 0.00 | 0.00 | 62 | 1018.0 |
| 20260507182828 | 22 | 318 | 11.3 | 19.3 | 0.00 | 0.00 | 0.00 | 61 | 1018.1 |
| 20260507182348 | 22 | 182 | 9.7 | 16.1 | 0.00 | 0.00 | 0.00 | 61 | 1018.1 |
| 20260507181845 | 22 | 215 | 8.0 | 12.9 | 0.00 | 0.00 | 0.00 | 61 | 1018.1 |
| 20260507181343 | 22 | 205 | 8.0 | 16.1 | 0.00 | 0.00 | 0.00 | 61 | 1018.2 |
| 20260507180824 | 22 | 207 | 9.7 | 16.1 | 0.00 | 0.00 | 0.00 | 61 | 1018.2 |
| 20260507180339 | 22 | 248 | 6.4 | 12.9 | 0.00 | 0.00 | 0.00 | 62 | 1018.2 |
| 20260507175857 | 21 | 128 | 3.2 | 12.9 | 0.00 | 0.00 | 0.00 | 63 | 1018.2 |
| 20260507175333 | 21 | 271 | 8.0 | 12.9 | 0.00 | 0.00 | 0.00 | 64 | 1018.2 |
| 20260507174831 | 21 | 255 | 3.2 | 12.9 | 0.00 | 0.00 | 0.00 | 64 | 1018.3 |
| 20260507174330 | 21 | 317 | 3.2 | 8.0 | 0.00 | 0.00 | 0.00 | 66 | 1018.2 |
| 20260507173825 | 20 | 173 | 1.6 | 14.5 | 0.00 | 0.00 | 0.00 | 67 | 1018.3 |
| 20260507173324 | 21 | 295 | 8.0 | 14.5 | 0.00 | 0.00 | 0.00 | 65 | 1018.4 |
| 20260507172824 | 21 | 244 | 8.0 | 12.9 | 0.00 | 0.00 | 0.00 | 64 | 1018.3 |
| 20260507172344 | 21 | 165 | 0.0 | 8.0 | 0.00 | 0.00 | 0.00 | 67 | 1018.3 |
| 20260507171902 | 20 | 160 | 1.6 | 11.3 | 0.00 | 0.00 | 0.00 | 68 | 1018.3 |
| 20260507171357 | 20 | 294 | 3.2 | 11.3 | 0.00 | 0.00 | 0.00 | 68 | 1018.4 |
| 20260507170836 | 20 | 285 | 1.6 | 11.3 | 0.00 | 0.00 | 0.00 | 68 | 1018.4 |
| 20260507170335 | 20 | 288 | 4.8 | 9.7 | 0.00 | 0.00 | 0.00 | 67 | 1018.4 |
| 20260507165831 | 20 | 267 | 0.0 | 4.8 | 0.00 | 0.00 | 0.00 | 68 | 1018.4 |
| 20260507165351 | 20 | 296 | 1.6 | 9.7 | 0.00 | 0.00 | 0.00 | 69 | 1018.4 |
| 20260507164827 | 20 | 227 | 3.2 | 9.7 | 0.00 | 0.00 | 0.00 | 69 | 1018.4 |
| 20260507164341 | 20 | 261 | 4.8 | 9.7 | 0.00 | 0.00 | 0.00 | 69 | 1018.4 |
| 20260507163838 | 20 | 187 | 0.0 | 6.4 | 0.00 | 0.00 | 0.00 | 69 | 1018.5 |
| 20260507163337 | 19 | 185 | 3.2 | 6.4 | 0.00 | 0.00 | 0.00 | 70 | 1018.5 |
| 20260507162836 | 19 | 126 | 1.6 | 11.3 | 0.00 | 0.00 | 0.00 | 71 | 1018.5 |
| 20260507162337 | 19 | 176 | 6.4 | 11.3 | 0.00 | 0.00 | 0.00 | 70 | 1018.5 |
| 20260507161835 | 18 | 193 | 3.2 | 8.0 | 0.00 | 0.00 | 0.00 | 71 | 1018.5 |
| 20260507161331 | 18 | 189 | 1.6 | 9.7 | 0.00 | 0.00 | 0.00 | 71 | 1018.5 |
| 20260507160831 | 18 | 244 | 3.2 | 9.7 | 0.00 | 0.00 | 0.00 | 72 | 1018.5 |
| 20260507160408 | 18 | 164 | 3.2 | 8.0 | 0.00 | 0.00 | 0.00 | 73 | 1018.6 |
| 20260507155829 | 18 | 170 | 1.6 | 6.4 | 0.00 | 0.00 | 0.00 | 73 | 1018.6 |
| 20260507155328 | 18 | 197 | 3.2 | 6.4 | 0.00 | 0.00 | 0.00 | 74 | 1018.7 |
| 20260507154902 | 18 | 213 | 0.0 | 9.7 | 0.00 | 0.00 | 0.00 | 76 | 1018.6 |
| 20260507154338 | 17 | 221 | 3.2 | 9.7 | 0.00 | 0.00 | 0.00 | 75 | 1018.7 |
| 20260507153837 | 17 | 198 | 0.0 | 3.2 | 0.00 | 0.00 | 0.00 | 76 | 1018.8 |
| 20260507153335 | 17 | 199 | 0.0 | 4.8 | 0.00 | 0.00 | 0.00 | 76 | 1018.8 |
| 20260507152836 | 17 | 198 | 1.6 | 6.4 | 0.00 | 0.00 | 0.00 | 76 | 1018.9 |
| 20260507152334 | 17 | 215 | 1.6 | 6.4 | 0.00 | 0.00 | 0.00 | 76 | 1018.9 |
| 20260507151829 | 17 | 213 | 0.0 | 6.4 | 0.00 | 0.00 | 0.00 | 76 | 1018.7 |
| 20260507151328 | 17 | 216 | 1.6 | 6.4 | 0.00 | 0.00 | 0.00 | 76 | 1018.7 |
| 20260507150827 | 17 | 171 | 0.0 | 6.4 | 0.00 | 0.00 | 0.00 | 77 | 1018.7 |
| 20260507150345 | 16 | 146 | 0.0 | 1.6 | 0.00 | 0.00 | 0.00 | 77 | 1018.8 |
| 20260507145841 | 16 | 143 | 0.0 | 3.2 | 0.00 | 0.00 | 0.00 | 77 | 1018.8 |
| 20260507145340 | 16 | 143 | 0.0 | 3.2 | 0.00 | 0.00 | 0.00 | 78 | 1018.7 |
| 20260507144854 | 16 | 152 | 0.0 | 3.2 | 0.00 | 0.00 | 0.00 | 79 | 1018.8 |
| 20260507144335 | 16 | 151 | 0.0 | 3.2 | 0.00 | 0.00 | 0.00 | 79 | 1018.8 |
| 20260507143831 | 16 | 150 | 0.0 | 3.2 | 0.00 | 0.00 | 0.00 | 80 | 1018.8 |
| 20260507143329 | 16 | 150 | 0.0 | 3.2 | 0.00 | 0.00 | 0.00 | 80 | 1018.7 |
| 20260507142828 | 15 | 63 | 0.0 | 1.6 | 0.00 | 0.00 | 0.00 | 81 | 1018.7 |
| 20260507142341 | 15 | 63 | 0.0 | 1.6 | 0.00 | 0.00 | 0.00 | 81 | 1018.6 |
| 20260507141840 | 15 | 61 | 0.0 | 0.0 | 0.00 | 0.00 | 0.00 | 82 | 1018.3 |
| 20260507141341 | 15 | 61 | 0.0 | 0.0 | 0.00 | 0.00 | 0.00 | 83 | 1018.3 |
| 20260507140842 | 15 | 61 | 0.0 | 1.6 | 0.00 | 0.00 | 0.00 | 83 | 1018.3 |
| 20260507140340 | 14 | 61 | 0.0 | 1.6 | 0.00 | 0.00 | 0.00 | 83 | 1018.3 |
| 20260507135837 | 14 | 61 | 0.0 | 1.6 | 0.00 | 0.00 | 0.00 | 83 | 1018.2 |
| 20260507135331 | 14 | 61 | 0.0 | 1.6 | 0.00 | 0.00 | 0.00 | 83 | 1018.2 |
| 20260507134828 | 13 | 61 | 0.0 | 1.6 | 0.00 | 0.00 | 0.00 | 84 | 1018.2 |
| 20260507134327 | 13 | 360 | 0.0 | 0.0 | 0.00 | 0.00 | 0.00 | 84 | 1018.1 |
| 20260507133827 | 13 | 360 | 0.0 | 0.0 | 0.00 | 0.00 | 0.00 | 83 | 1018.0 |
| 20260507133325 | 13 | 360 | 0.0 | 0.0 | 0.00 | 0.00 | 0.00 | 83 | 1017.9 |
| 20260507132839 | 13 | 360 | 0.0 | 0.0 | 0.00 | 0.00 | 0.00 | 83 | 1017.9 |
| 20260507132340 | 13 | 61 | 0.0 | 0.0 | 0.00 | 0.00 | 0.00 | 83 | 1018.0 |
| 20260507131841 | 13 | 61 | 0.0 | 1.6 | 0.00 | 0.00 | 0.00 | 83 | 1017.9 |
| 20260507131339 | 13 | 51 | 0.0 | 1.6 | 0.00 | 0.00 | 0.00 | 83 | 1017.8 |
| 20260507130837 | 13 | 40 | 0.0 | 1.6 | 0.00 | 0.00 | 0.00 | 83 | 1017.7 |
| 20260507130337 | 13 | 40 | 0.0 | 0.0 | 0.00 | 0.00 | 0.00 | 83 | 1017.6 |
| 20260507125827 | 13 | 40 | 0.0 | 0.0 | 0.00 | 0.00 | 0.00 | 83 | 1017.7 |
| 20260507125345 | 13 | 42 | 0.0 | 0.0 | 0.00 | 0.00 | 0.00 | 83 | 1017.7 |
| 20260507124832 | 13 | 51 | 0.0 | 0.0 | 0.00 | 0.00 | 0.00 | 83 | 1017.6 |
| 20260507124352 | 13 | 51 | 0.0 | 0.0 | 0.00 | 0.00 | 0.00 | 83 | 1017.6 |
| 20260507123826 | 13 | 51 | 0.0 | 0.0 | 0.00 | 0.00 | 0.00 | 83 | 1017.6 |
| 20260507123325 | 13 | 51 | 0.0 | 0.0 | 0.00 | 0.00 | 0.00 | 83 | 1017.6 |
| 20260507122825 | 13 | 51 | 0.0 | 0.0 | 0.00 | 0.00 | 0.00 | 83 | 1017.6 |
| 20260507122326 | 13 | 51 | 0.0 | 0.0 | 0.00 | 0.00 | 0.00 | 83 | 1017.6 |
| 20260507121844 | 13 | 47 | 0.0 | 0.0 | 0.00 | 0.00 | 0.00 | 83 | 1017.6 |
| 20260507121342 | 13 | 45 | 0.0 | 0.0 | 0.00 | 0.00 | 0.00 | 83 | 1017.7 |
| 20260507120858 | 13 | 45 | 0.0 | 4.8 | 0.00 | 0.00 | 0.00 | 83 | 1017.7 |
| 20260507120337 | 13 | 44 | 1.6 | 4.8 | 0.00 | 0.00 | 0.00 | 83 | 1017.7 |
| 20260507115851 | 13 | 38 | 1.6 | 4.8 | 0.00 | 0.00 | 0.00 | 83 | 1017.9 |
| 20260507115329 | 13 | 42 | 3.2 | 4.8 | 0.00 | 0.00 | 0.00 | 83 | 1017.8 |
| 20260507114829 | 13 | 31 | 3.2 | 4.8 | 0.00 | 0.00 | 0.00 | 82 | 1017.9 |
| 20260507114345 | 13 | 24 | 1.6 | 4.8 | 0.00 | 0.00 | 0.00 | 82 | 1017.9 |
| 20260507113841 | 13 | 22 | 1.6 | 4.8 | 0.00 | 0.00 | 0.00 | 82 | 1017.9 |
| 20260507113341 | 13 | 21 | 3.2 | 4.8 | 0.00 | 0.00 | 0.00 | 82 | 1017.9 |
| 20260507112900 | 13 | 35 | 0.0 | 4.8 | 0.00 | 0.00 | 0.00 | 82 | 1017.9 |
| 20260507112336 | 13 | 35 | 1.6 | 4.8 | 0.00 | 0.00 | 0.00 | 82 | 1017.9 |
| 20260507111835 | 13 | 34 | 1.6 | 4.8 | 0.00 | 0.00 | 0.00 | 82 | 1018.0 |
| 20260507111330 | 13 | 49 | 1.6 | 3.2 | 0.00 | 0.00 | 0.00 | 82 | 1018.0 |
| 20260507110849 | 13 | 51 | 0.0 | 3.2 | 0.00 | 0.00 | 0.00 | 82 | 1018.1 |
| 20260507110406 | 13 | 52 | 0.0 | 1.6 | 0.00 | 0.00 | 0.00 | 82 | 1018.0 |
| 20260507105842 | 13 | 52 | 0.0 | 1.6 | 0.00 | 0.00 | 0.00 | 82 | 1018.1 |
| 20260507105338 | 13 | 53 | 0.0 | 1.6 | 0.00 | 0.00 | 0.00 | 82 | 1018.0 |
| 20260507104836 | 13 | 52 | 0.0 | 0.0 | 0.00 | 0.00 | 0.00 | 82 | 1018.1 |
| 20260507104335 | 13 | 53 | 0.0 | 1.6 | 0.00 | 0.00 | 0.00 | 82 | 1018.1 |
| 20260507103834 | 13 | 52 | 0.0 | 3.2 | 0.00 | 0.00 | 0.00 | 82 | 1018.2 |
| 20260507103355 | 13 | 52 | 0.0 | 3.2 | 0.00 | 0.00 | 0.00 | 82 | 1018.2 |
| 20260507102834 | 13 | 53 | 0.0 | 3.2 | 0.00 | 0.00 | 0.00 | 82 | 1018.2 |
| 20260507102330 | 13 | 53 | 0.0 | 3.2 | 0.00 | 0.00 | 0.00 | 81 | 1018.3 |
| 20260507101829 | 13 | 53 | 1.6 | 4.8 | 0.00 | 0.00 | 0.00 | 81 | 1018.3 |
| 20260507101330 | 13 | 53 | 1.6 | 4.8 | 0.00 | 0.00 | 0.00 | 81 | 1018.2 |
| 20260507100829 | 13 | 51 | 1.6 | 4.8 | 0.00 | 0.00 | 0.00 | 81 | 1018.2 |
| 20260507100349 | 14 | 49 | 1.6 | 4.8 | 0.00 | 0.00 | 0.00 | 81 | 1018.2 |
| 20260507095824 | 14 | 30 | 3.2 | 4.8 | 0.00 | 0.00 | 0.00 | 81 | 1018.3 |
| 20260507095339 | 14 | 40 | 1.6 | 4.8 | 0.00 | 0.00 | 0.00 | 81 | 1018.4 |
| 20260507094857 | 14 | 45 | 1.6 | 4.8 | 0.00 | 0.00 | 0.00 | 80 | 1018.3 |
| 20260507094337 | 14 | 46 | 1.6 | 4.8 | 0.00 | 0.00 | 0.00 | 80 | 1018.3 |
| 20260507093837 | 14 | 51 | 0.0 | 4.8 | 0.00 | 0.00 | 0.00 | 80 | 1018.4 |
| 20260507093336 | 14 | 51 | 1.6 | 4.8 | 0.00 | 0.00 | 0.00 | 80 | 1018.6 |
| 20260507092829 | 15 | 42 | 0.0 | 4.8 | 0.00 | 0.00 | 0.00 | 80 | 1018.7 |
| 20260507092329 | 15 | 27 | 1.6 | 3.2 | 0.00 | 0.00 | 0.00 | 80 | 1018.7 |
| 20260507091828 | 15 | 355 | 0.0 | 3.2 | 0.00 | 0.00 | 0.00 | 80 | 1018.8 |
| 20260507091326 | 15 | 307 | 0.0 | 0.0 | 0.00 | 0.00 | 0.00 | 80 | 1018.8 |
| 20260507090825 | 15 | 307 | 0.0 | 1.6 | 0.00 | 0.00 | 0.00 | 80 | 1018.9 |
| 20260507090345 | 15 | 307 | 0.0 | 1.6 | 0.00 | 0.00 | 0.00 | 80 | 1019.0 |
| 20260507085837 | 15 | 306 | 0.0 | 1.6 | 0.00 | 0.00 | 0.00 | 80 | 1019.0 |
| 20260507085335 | 15 | 306 | 0.0 | 1.6 | 0.00 | 0.00 | 0.00 | 80 | 1019.0 |
| 20260507084835 | 15 | 306 | 0.0 | 0.0 | 0.00 | 0.00 | 0.00 | 80 | 1019.0 |
| 20260507084334 | 15 | 306 | 0.0 | 0.0 | 0.00 | 0.00 | 0.00 | 80 | 1019.1 |
| 20260507083834 | 15 | 306 | 0.0 | 0.0 | 0.00 | 0.00 | 0.00 | 81 | 1019.1 |
| 20260507083354 | 15 | 306 | 0.0 | 0.0 | 0.00 | 0.00 | 0.00 | 81 | 1019.1 |
| 20260507082828 | 15 | 306 | 0.0 | 0.0 | 0.00 | 0.00 | 0.00 | 81 | 1019.1 |
| 20260507082328 | 15 | 306 | 0.0 | 1.6 | 0.00 | 0.00 | 0.00 | 81 | 1019.2 |
| 20260507081825 | 15 | 306 | 0.0 | 1.6 | 0.00 | 0.00 | 0.00 | 81 | 1019.1 |
| 20260507081324 | 15 | 306 | 0.0 | 1.6 | 0.00 | 0.00 | 0.00 | 81 | 1019.2 |
| 20260507080825 | 15 | 306 | 0.0 | 1.6 | 0.00 | 0.00 | 0.00 | 81 | 1019.2 |
| 20260507080345 | 15 | 306 | 0.0 | 3.2 | 0.00 | 0.00 | 0.00 | 81 | 1019.2 |
| 20260507075838 | 15 | 306 | 0.0 | 3.2 | 0.00 | 0.00 | 0.00 | 81 | 1019.2 |
| 20260507075339 | 16 | 306 | 1.6 | 3.2 | 0.00 | 0.00 | 0.00 | 81 | 1019.2 |
| 20260507074837 | 16 | 306 | 0.0 | 3.2 | 0.00 | 0.00 | 0.00 | 80 | 1019.3 |
| 20260507074334 | 16 | 306 | 1.6 | 4.8 | 0.00 | 0.00 | 0.00 | 81 | 1019.2 |
| 20260507073835 | 16 | 306 | 3.2 | 4.8 | 0.00 | 0.00 | 0.00 | 81 | 1019.3 |
| 20260507073331 | 16 | 306 | 1.6 | 4.8 | 0.00 | 0.00 | 0.00 | 80 | 1019.3 |
| 20260507072847 | 16 | 306 | 3.2 | 6.4 | 0.00 | 0.00 | 0.00 | 81 | 1019.3 |
| 20260507072343 | 16 | 306 | 4.8 | 6.4 | 0.00 | 0.00 | 0.00 | 80 | 1019.3 |
| 20260507071903 | 16 | 317 | 4.8 | 4.8 | 0.00 | 0.00 | 0.00 | 80 | 1019.3 |
| 20260507071341 | 16 | 317 | 3.2 | 4.8 | 0.00 | 0.00 | 0.00 | 80 | 1019.3 |
| 20260507070857 | 16 | 317 | 0.0 | 4.8 | 0.00 | 0.00 | 0.00 | 79 | 1019.3 |
| 20260507070401 | 16 | 334 | 0.0 | 4.8 | 0.00 | 0.00 | 0.00 | 79 | 1019.4 |
| 20260507065836 | 16 | 335 | 0.0 | 6.4 | 0.00 | 0.00 | 0.00 | 79 | 1019.4 |
| 20260507065335 | 16 | 335 | 3.2 | 6.4 | 0.00 | 0.00 | 0.00 | 79 | 1019.4 |
| 20260507064836 | 16 | 307 | 3.2 | 4.8 | 0.00 | 0.00 | 0.00 | 79 | 1019.6 |
| 20260507064334 | 16 | 298 | 0.0 | 3.2 | 0.00 | 0.00 | 0.00 | 79 | 1019.6 |
| 20260507063849 | 16 | 296 | 1.6 | 4.8 | 0.00 | 0.00 | 0.00 | 79 | 1019.6 |
| 20260507063326 | 16 | 298 | 1.6 | 4.8 | 0.00 | 0.00 | 0.00 | 79 | 1019.7 |
| 20260507062826 | 16 | 315 | 1.6 | 8.0 | 0.00 | 0.00 | 0.00 | 78 | 1019.6 |
| 20260507062327 | 16 | 317 | 3.2 | 8.0 | 0.00 | 0.00 | 0.00 | 78 | 1019.6 |
| 20260507061825 | 16 | 306 | 4.8 | 8.0 | 0.00 | 0.00 | 0.00 | 78 | 1019.6 |
| 20260507061340 | 16 | 313 | 4.8 | 9.7 | 0.00 | 0.00 | 0.00 | 77 | 1019.5 |
| 20260507060840 | 16 | 313 | 4.8 | 9.7 | 0.00 | 0.00 | 0.00 | 77 | 1019.6 |
| 20260507060339 | 16 | 281 | 3.2 | 6.4 | 0.00 | 0.00 | 0.00 | 77 | 1019.5 |
| 20260507055856 | 16 | 344 | 3.2 | 9.7 | 0.00 | 0.00 | 0.00 | 76 | 1019.6 |
| 20260507055333 | 16 | 300 | 4.8 | 14.5 | 0.00 | 0.00 | 0.00 | 76 | 1019.5 |
| 20260507054834 | 16 | 317 | 6.4 | 12.9 | 0.00 | 0.00 | 0.00 | 76 | 1019.5 |
| 20260507054330 | 16 | 303 | 6.4 | 11.3 | 0.00 | 0.00 | 0.00 | 76 | 1019.5 |
| 20260507053828 | 16 | 313 | 4.8 | 14.5 | 0.00 | 0.00 | 0.00 | 75 | 1019.4 |
| 20260507053327 | 17 | 306 | 6.4 | 14.5 | 0.00 | 0.00 | 0.00 | 74 | 1019.4 |
| 20260507052847 | 17 | 304 | 9.7 | 12.9 | 0.00 | 0.00 | 0.00 | 74 | 1019.4 |
| 20260507052403 | 17 | 300 | 8.0 | 12.9 | 0.00 | 0.00 | 0.00 | 72 | 1019.4 |
| 20260507051838 | 17 | 290 | 6.4 | 11.3 | 0.00 | 0.00 | 0.00 | 72 | 1019.4 |
| 20260507051338 | 17 | 295 | 6.4 | 9.7 | 0.00 | 0.00 | 0.00 | 71 | 1019.3 |
| 20260507050837 | 17 | 294 | 3.2 | 9.7 | 0.00 | 0.00 | 0.00 | 71 | 1019.4 |
| 20260507050337 | 17 | 304 | 4.8 | 8.0 | 0.00 | 0.00 | 0.00 | 71 | 1019.4 |
| 20260507045833 | 17 | 308 | 4.8 | 9.7 | 0.00 | 0.00 | 0.00 | 70 | 1019.4 |
| 20260507045331 | 17 | 303 | 3.2 | 9.7 | 0.00 | 0.00 | 0.00 | 70 | 1019.4 |
| 20260507044830 | 17 | 311 | 8.0 | 9.7 | 0.00 | 0.00 | 0.00 | 70 | 1019.4 |
| 20260507044325 | 17 | 283 | 6.4 | 11.3 | 0.00 | 0.00 | 0.00 | 70 | 1019.3 |
| 20260507043844 | 17 | 288 | 9.7 | 12.9 | 0.00 | 0.00 | 0.00 | 70 | 1019.4 |
| 20260507043341 | 17 | 303 | 4.8 | 16.1 | 0.00 | 0.00 | 0.00 | 70 | 1019.4 |
| 20260507042842 | 17 | 309 | 11.3 | 16.1 | 0.00 | 0.00 | 0.00 | 70 | 1019.3 |
| 20260507042338 | 17 | 313 | 9.7 | 14.5 | 0.00 | 0.00 | 0.00 | 70 | 1019.3 |
| 20260507041838 | 17 | 304 | 8.0 | 11.3 | 0.00 | 0.00 | 0.00 | 70 | 1019.2 |
| 20260507041333 | 17 | 302 | 8.0 | 14.5 | 0.00 | 0.00 | 0.00 | 70 | 1019.3 |
| 20260507040833 | 17 | 299 | 9.7 | 14.5 | 0.00 | 0.00 | 0.00 | 70 | 1019.1 |
| 20260507040334 | 18 | 314 | 12.9 | 16.1 | 0.00 | 0.00 | 0.00 | 70 | 1019.2 |
| 20260507035829 | 18 | 290 | 9.7 | 16.1 | 0.00 | 0.00 | 0.00 | 69 | 1019.0 |
| 20260507035328 | 18 | 304 | 11.3 | 16.1 | 0.00 | 0.00 | 0.00 | 69 | 1019.0 |
| 20260507034829 | 18 | 309 | 11.3 | 17.7 | 0.00 | 0.00 | 0.00 | 68 | 1018.8 |
| 20260507034344 | 18 | 306 | 12.9 | 17.7 | 0.00 | 0.00 | 0.00 | 68 | 1018.8 |
| 20260507033841 | 18 | 308 | 12.9 | 17.7 | 0.00 | 0.00 | 0.00 | 67 | 1018.8 |
| 20260507033340 | 18 | 308 | 12.9 | 19.3 | 0.00 | 0.00 | 0.00 | 67 | 1018.9 |
| 20260507032840 | 18 | 309 | 11.3 | 19.3 | 0.00 | 0.00 | 0.00 | 67 | 1018.7 |
| 20260507032338 | 18 | 321 | 11.3 | 17.7 | 0.00 | 0.00 | 0.00 | 66 | 1018.6 |
| 20260507031836 | 18 | 311 | 12.9 | 17.7 | 0.00 | 0.00 | 0.00 | 65 | 1018.6 |
| 20260507031329 | 18 | 306 | 12.9 | 16.1 | 0.00 | 0.00 | 0.00 | 64 | 1018.5 |
| 20260507030828 | 18 | 360 | 12.9 | 19.3 | 0.00 | 0.00 | 0.00 | 64 | 1018.5 |
| 20260507030346 | 19 | 313 | 16.1 | 19.3 | 0.00 | 0.00 | 0.00 | 63 | 1018.5 |
| 20260507025843 | 19 | 298 | 11.3 | 19.3 | 0.00 | 0.00 | 0.00 | 63 | 1018.5 |
| 20260507025342 | 19 | 297 | 12.9 | 19.3 | 0.00 | 0.00 | 0.00 | 62 | 1018.4 |
| 20260507024837 | 19 | 303 | 11.3 | 17.7 | 0.00 | 0.00 | 0.00 | 62 | 1018.3 |
| 20260507024338 | 19 | 302 | 12.9 | 17.7 | 0.00 | 0.00 | 0.00 | 62 | 1018.3 |
| 20260507023856 | 19 | 307 | 12.9 | 19.3 | 0.00 | 0.00 | 0.00 | 62 | 1018.2 |
| 20260507023356 | 20 | 303 | 12.9 | 19.3 | 0.00 | 0.00 | 0.00 | 62 | 1018.2 |
| 20260507022835 | 20 | 301 | 14.5 | 19.3 | 0.00 | 0.00 | 0.00 | 62 | 1018.1 |
| 20260507022334 | 20 | 298 | 12.9 | 20.9 | 0.00 | 0.00 | 0.00 | 62 | 1018.0 |
| 20260507021829 | 20 | 312 | 14.5 | 20.9 | 0.00 | 0.00 | 0.00 | 61 | 1018.0 |
| 20260507021327 | 20 | 311 | 12.9 | 19.3 | 0.00 | 0.00 | 0.00 | 61 | 1018.0 |
| 20260507020825 | 20 | 301 | 12.9 | 20.9 | 0.00 | 0.00 | 0.00 | 61 | 1017.9 |
| 20260507020341 | 20 | 299 | 16.1 | 20.9 | 0.00 | 0.00 | 0.00 | 61 | 1017.9 |
| 20260507015836 | 20 | 322 | 12.9 | 20.9 | 0.00 | 0.00 | 0.00 | 61 | 1017.9 |
| 20260507015337 | 20 | 302 | 14.5 | 19.3 | 0.00 | 0.00 | 0.00 | 60 | 1017.8 |
| 20260507014832 | 21 | 271 | 6.4 | 17.7 | 0.00 | 0.00 | 0.00 | 61 | 1017.8 |
| 20260507014331 | 21 | 277 | 12.9 | 17.7 | 0.00 | 0.00 | 0.00 | 61 | 1017.8 |
| 20260507013827 | 21 | 178 | 11.3 | 20.9 | 0.00 | 0.00 | 0.00 | 60 | 1017.9 |
| 20260507013327 | 21 | 221 | 8.0 | 17.7 | 0.00 | 0.00 | 0.00 | 60 | 1017.7 |
| 20260507012845 | 21 | 196 | 11.3 | 27.4 | 0.00 | 0.00 | 0.00 | 60 | 1017.7 |
| 20260507012339 | 21 | 218 | 11.3 | 27.4 | 0.00 | 0.00 | 0.00 | 59 | 1017.7 |
| 20260507011840 | 21 | 246 | 17.7 | 25.7 | 0.00 | 0.00 | 0.00 | 58 | 1017.6 |
| 20260507011336 | 21 | 182 | 16.1 | 22.5 | 0.00 | 0.00 | 0.00 | 58 | 1017.5 |
| 20260507010855 | 21 | 204 | 11.3 | 24.1 | 0.00 | 0.00 | 0.00 | 58 | 1017.4 |
| 20260507010352 | 21 | 223 | 16.1 | 27.4 | 0.00 | 0.00 | 0.00 | 58 | 1017.5 |
| 20260507005829 | 21 | 269 | 12.9 | 27.4 | 0.00 | 0.00 | 0.00 | 58 | 1017.5 |
| 20260507005324 | 21 | 207 | 11.3 | 24.1 | 0.00 | 0.00 | 0.00 | 58 | 1017.5 |
| 20260507004843 | 21 | 250 | 17.7 | 24.1 | 0.00 | 0.00 | 0.00 | 58 | 1017.6 |
| 20260507004343 | 21 | 298 | 14.5 | 25.7 | 0.00 | 0.00 | 0.00 | 58 | 1017.6 |
| 20260507003903 | 21 | 252 | 14.5 | 25.7 | 0.00 | 0.00 | 0.00 | 58 | 1017.4 |
| 20260507003402 | 21 | 205 | 8.0 | 22.5 | 0.00 | 0.00 | 0.00 | 58 | 1017.6 |